Location: UBC Liquid-Mirror Observatory
(49.2876°N, 122.5728°W)
Time: 03:35:22
(UTC-07:00)

Amateur Radio Satellites - All Passes

Search period start: 24 June 2017 03:05
Search period end: 25 June 2017 03:05
Location: UBC Liquid-Mirror Observatory, 49.2876°N, 122.5728°W

Satellite Date Start Highest point End Downlink Frequencies (MHz)
Time Altitude Azimuth
BUGSAT 1 24 Jun 03:12:35 03:16:07 26° 296° (WNW) 03:19:37 437.445
Oscar 19 24 Jun 03:16:16 03:21:22 70° 289° (WNW) 03:26:28 437.125/150
NO-84 24 Jun 03:17:26 03:21:35 41° 10° (N) 03:25:46 435.350 FM
CUBESAT XI-V 24 Jun 03:18:59 03:21:47 16° 58° (ENE) 03:24:35 437.345
AO-7 24 Jun 03:20:41 03:26:34 20° 88° (E) 03:32:25 .
AO-85 24 Jun 03:33:15 03:35:14 13° 22° (NNE) 03:37:16 145.980
ITAMSAT 1 24 Jun 03:50:16 03:54:34 25° 93° (E) 03:58:49 435.822/435.867
Gurwin Techsat 1B 24 Jun 03:55:54 04:01:05 52° 291° (WNW) 04:06:14 435.225
RS-15 24 Jun 04:09:18 04:21:03 46° 22° (NNE) 04:32:23 29.354- 29.394
MOZHAYETS 4 24 Jun 04:17:58 04:22:18 39° 263° (W) 04:26:41
ITUPSAT 1 24 Jun 04:21:43 04:25:42 25° 266° (W) 04:29:43 437.325
KKS-1 24 Jun 04:27:03 04:31:15 44° 69° (ENE) 04:35:31 437.445
BEESAT 24 Jun 04:33:29 04:37:00 20° 269° (W) 04:40:32 436.000
BEESAT 3 24 Jun 04:35:46 04:38:42 19° 30° (NNE) 04:41:38 437.485
CUBESAT XI-V 24 Jun 04:53:56 04:58:35 79° 258° (WSW) 05:03:14 437.345
NO-84 24 Jun 04:55:08 04:59:33 89° 220° (SW) 05:03:54 435.350 FM
Oscar 19 24 Jun 04:57:30 04:59:49 13° 308° (NW) 05:02:06 437.125/150
STARS 24 Jun 05:01:34 05:05:43 44° 68° (ENE) 05:09:56 437.465
AO-7 24 Jun 05:12:09 05:20:37 82° 109° (ESE) 05:29:00 .
AO-85 24 Jun 05:12:40 05:16:35 46° 44° (NE) 05:20:40 145.980
ITAMSAT 1 24 Jun 05:29:13 05:34:20 54° 292° (WNW) 05:39:25 435.822/435.867
BEESAT 2 24 Jun 05:30:43 05:33:58 22° 33° (NNE) 05:37:12 435.950
Gurwin Techsat 1B 24 Jun 05:38:49 05:39:53 11° 312° (NW) 05:40:57 435.225
DOVE 4 24 Jun 05:47:53 05:51:23 20° 91° (E) 05:55:00 437.250
KKS-1 24 Jun 06:04:29 06:08:02 23° 267° (W) 06:11:35 437.445
BEESAT 3 24 Jun 06:12:48 06:16:52 88° 52° (NE) 06:20:51 437.485
O/OREOS (USA 219) 24 Jun 06:18:48 06:21:39 16° 43° (NE) 06:24:28 437.305
CUTE-I 24 Jun 06:21:45 06:25:18 18° 89° (E) 06:28:50 437.470
RS-15 24 Jun 06:22:51 06:35:12 90° 48° (NE) 06:46:55 29.354- 29.394
STRAND 1 24 Jun 06:26:52 06:31:03 26° 60° (ENE) 06:35:16 437.568
NO-84 24 Jun 06:33:22 06:36:43 22° 229° (SW) 06:40:00 435.350 FM
CUBESAT XI-V 24 Jun 06:36:00 06:36:43 10° 275° (W) 06:37:28 437.345
STARS 24 Jun 06:38:46 06:42:16 23° 267° (W) 06:45:47 437.465
NUDT-PHONESAT 24 Jun 06:41:08 06:43:46 18° 92° (E) 06:46:22 437.300
XW-2F 24 Jun 06:51:08 06:54:26 28° 95° (E) 06:57:42 145.980 - 146.000
AO-85 24 Jun 06:53:23 06:56:48 26° 242° (WSW) 07:00:22 145.980
XW-2D 24 Jun 06:53:52 06:57:19 33° 96° (E) 07:00:44 145.860 - 145.880
LilacSat-2 24 Jun 07:00:04 07:03:40 39° 98° (E) 07:07:15 437.200
XW-2B 24 Jun 07:02:44 07:06:19 39° 98° (E) 07:09:52 145.730 - 145.750
HO-68 24 Jun 07:03:16 07:07:21 16° 85° (E) 07:11:23 435.675
AO-7 24 Jun 07:05:37 07:12:38 31° 311° (NW) 07:19:38 .
BEESAT 2 24 Jun 07:08:04 07:12:10 72° 233° (SW) 07:16:11 435.950
ITAMSAT 1 24 Jun 07:11:30 07:12:42 11° 312° (NW) 07:13:53 435.822/435.867
XW-2C 24 Jun 07:18:02 07:21:48 60° 102° (ESE) 07:25:31 145.795 - 145.815
CUTE 1.7 + AOD 2 24 Jun 07:19:03 07:20:34 12° 87° (E) 07:22:04 437.475
DOVE 4 24 Jun 07:24:41 07:29:25 63° 288° (WNW) 07:34:25 437.250
KAITUO 1B 24 Jun 07:36:09 07:39:54 76° 102° (ESE) 07:43:35 145.475/437.950
BEESAT 3 24 Jun 07:52:10 07:53:48 12° 250° (WSW) 07:55:25 437.485
XW-2A 24 Jun 07:55:34 07:57:54 17° 92° (E) 08:00:12 145.665 - 145.685
O/OREOS (USA 219) 24 Jun 07:57:14 08:01:44 90° 243° (WSW) 08:06:12 437.305
CUTE-I 24 Jun 08:00:34 08:05:58 78° 288° (WNW) 08:11:21 437.470
STRAND 1 24 Jun 08:04:53 08:09:55 54° 259° (W) 08:15:00 437.568
YUBILEINY 24 Jun 08:07:17 08:14:41 28° 59° (ENE) 08:21:59 435.215
NUDT-PHONESAT 24 Jun 08:14:21 08:17:51 40° 290° (WNW) 08:21:19 437.300
FO-29 24 Jun 08:22:01 08:26:49 23° 51° (NE) 08:32:00 435.910
XW-2F 24 Jun 08:25:19 08:28:31 26° 293° (WNW) 08:31:39 145.980 - 146.000
XW-2D 24 Jun 08:28:20 08:31:23 23° 295° (WNW) 08:34:24 145.860 - 145.880
LilacSat-2 24 Jun 08:34:53 08:37:43 20° 296° (WNW) 08:40:33 437.200
RS-15 24 Jun 08:36:20 08:46:10 31° 257° (WSW) 08:55:38 29.354- 29.394
XW-2B 24 Jun 08:37:28 08:40:17 20° 296° (WNW) 08:43:04 145.730 - 145.750
SEEDS 24 Jun 08:38:16 08:42:18 47° 98° (E) 08:46:19 437.485
TIGRISAT 24 Jun 08:38:52 08:41:07 14° 55° (NE) 08:43:23 435.000
M-CUBED/EXP-1 PRIME 24 Jun 08:48:10 08:51:10 33° 63° (ENE) 08:54:08 437.505
CUBEBUG 2 24 Jun 08:48:12 08:52:52 51° 99° (E) 08:57:23 437.445
HO-68 24 Jun 08:49:06 08:56:19 74° 105° (ESE) 09:03:29 435.675
AO-73 24 Jun 08:50:11 08:53:17 18° 89° (E) 08:56:19 145.935
CUTE 1.7 + AOD 2 24 Jun 08:52:45 08:56:59 81° 283° (WNW) 09:01:10 437.475
XW-2C 24 Jun 08:53:26 08:55:33 14° 299° (WNW) 08:57:38 145.795 - 145.815
PRISM 24 Jun 08:57:01 08:59:46 18° 61° (ENE) 09:02:31 437.425
AO-7 24 Jun 09:00:31 09:02:46 11° 336° (NNW) 09:05:02 .
DOVE 4 24 Jun 09:05:00 09:06:17 11° 306° (NW) 09:07:34 437.250
KAITUO 1B 24 Jun 09:11:59 09:13:21 12° 301° (WNW) 09:14:42 145.475/437.950
UNISAT 6 24 Jun 09:18:21 09:22:21 30° 64° (ENE) 09:26:24 437.425
Oscar 11 24 Jun 09:18:45 09:22:23 26° 94° (E) 09:25:59 .
ZACube-1 24 Jun 09:23:32 09:27:49 41° 97° (E) 09:31:59 437.345
UWE-3 24 Jun 09:25:05 09:29:45 71° 102° (ESE) 09:34:16 435.000/436.395/437.385
XW-2A 24 Jun 09:27:36 09:30:48 36° 290° (WNW) 09:33:56 145.665 - 145.685
AAUSAT CUBESAT 2 24 Jun 09:33:41 09:37:50 88° 110° (ESE) 09:41:57 437.432
O/OREOS (USA 219) 24 Jun 09:38:53 09:40:24 12° 263° (W) 09:41:54 437.305
DELFI C3 24 Jun 09:40:23 09:41:46 12° 88° (E) 09:43:09 145.870
Tancredo 1 24 Jun 09:41:26 09:44:12 32° 147° (SSE) 09:46:58 437.200
CUTE-I 24 Jun 09:42:08 09:45:12 16° 307° (NW) 09:48:14 437.470
ISS 24 Jun 09:43:48 09:46:22 21° 142° (SE) 09:48:58 437.550
YUBILEINY 24 Jun 10:03:42 10:12:36 82° 264° (W) 10:21:24 435.215
FO-29 24 Jun 10:04:44 10:10:53 89° 249° (WSW) 10:17:56 435.910
AIST 2D 24 Jun 10:11:17 10:12:18 11° 60° (ENE) 10:13:19 435.315
TIGRISAT 24 Jun 10:12:26 10:17:02 83° 75° (ENE) 10:21:46 435.000
SEEDS 24 Jun 10:14:37 10:17:42 20° 297° (WNW) 10:20:47 437.485
M-CUBED/EXP-1 PRIME 24 Jun 10:23:30 10:25:46 17° 260° (W) 10:28:03 437.505
CUBEBUG 2 24 Jun 10:25:23 10:29:09 24° 298° (WNW) 10:32:53 437.445
AO-73 24 Jun 10:25:29 10:29:54 57° 289° (WNW) 10:34:12 145.935
POLYITAN 1 24 Jun 10:26:27 10:27:58 12° 55° (NE) 10:29:30 437.675
PRISM 24 Jun 10:30:43 10:34:41 54° 259° (W) 10:38:41 437.425
CUTE 1.7 + AOD 2 24 Jun 10:30:49 10:32:06 11° 304° (NW) 10:33:22 437.475
QB50P2 24 Jun 10:36:04 10:38:33 15° 58° (ENE) 10:41:03 145.880/145.840
HO-68 24 Jun 10:37:31 10:43:29 29° 306° (NW) 10:49:25 435.675
Oscar 11 24 Jun 10:54:38 10:58:37 37° 292° (WNW) 11:02:35 .
UNISAT 6 24 Jun 10:54:38 10:58:56 38° 263° (W) 11:03:20 437.425
EO-88 24 Jun 10:58:23 11:01:59 52° 100° (E) 11:05:33 145.990 - 145.960
EO-79 24 Jun 11:00:03 11:03:23 23° 63° (ENE) 11:06:44 145.935-145.965
ZACube-1 24 Jun 11:00:09 11:03:55 26° 296° (WNW) 11:07:35 437.345
UWE-3 24 Jun 11:02:36 11:05:38 18° 301° (WNW) 11:08:39 435.000/436.395/437.385
AAUSAT CUBESAT 2 24 Jun 11:10:59 11:12:40 12° 302° (WNW) 11:14:19 437.432
DELFI C3 24 Jun 11:13:06 11:17:03 73° 285° (WNW) 11:20:58 145.870
DUCHIFAT 1 24 Jun 11:15:28 11:18:59 26° 64° (ENE) 11:22:31 145.980
Tancredo 1 24 Jun 11:16:37 11:19:40 68° 346° (NNW) 11:22:43 437.200
ISS 24 Jun 11:19:15 11:22:32 88° 161° (SSE) 11:25:51 437.550
NANOSAT C BR1 24 Jun 11:22:53 11:26:41 33° 67° (ENE) 11:30:31 145.865
ESTCUBE 1 24 Jun 11:26:08 11:28:01 12° 87° (E) 11:29:54 437.505/2401.250
LO-87 24 Jun 11:26:19 11:28:45 17° 92° (E) 11:31:12 145.935 - 145.965
AIST 2D 24 Jun 11:41:25 11:44:58 75° 258° (WSW) 11:48:32 435.315
TIGRISAT 24 Jun 11:52:02 11:54:21 14° 273° (W) 11:56:42 435.000
FO-29 24 Jun 11:53:00 11:57:07 18° 277° (W) 12:01:35 435.910
POLYITAN 1 24 Jun 11:58:45 12:03:01 81° 75° (ENE) 12:07:21 437.675
YUBILEINY 24 Jun 12:02:06 12:08:00 20° 286° (WNW) 12:13:52 435.215
Gurwin Techsat 1B 24 Jun 12:05:39 12:07:40 12° 50° (NE) 12:09:41 435.225
QB50P2 24 Jun 12:09:33 12:13:49 74° 258° (WSW) 12:18:07 145.880/145.840
PCSat 24 Jun 12:19:32 12:23:58 26° 110° (ESE) 12:28:25 145.827
BUGSAT 1 24 Jun 12:30:12 12:34:10 46° 70° (ENE) 12:38:12 437.445
EO-88 24 Jun 12:33:07 12:35:17 15° 298° (WNW) 12:37:26 145.990 - 145.960
EO-79 24 Jun 12:34:49 12:38:53 44° 261° (W) 12:43:01 145.935-145.965
AO-7 24 Jun 12:36:34 12:40:47 15° 32° (NNE) 12:45:00 .
DUCHIFAT 1 24 Jun 12:50:33 12:54:30 38° 263° (W) 12:58:29 145.980
Tancredo 1 24 Jun 12:52:28 12:55:28 54° 6° (N) 12:58:29 437.200
ISS 24 Jun 12:55:56 12:59:11 54° 359° (N) 13:02:27 437.550
Oscar 19 24 Jun 12:58:25 13:03:14 41° 66° (ENE) 13:08:03 437.125/150
NANOSAT C BR1 24 Jun 12:58:43 13:02:25 29° 265° (W) 13:06:10 145.865
LO-87 24 Jun 12:58:56 13:02:24 41° 289° (WNW) 13:05:50 145.935 - 145.965
ESTCUBE 1 24 Jun 13:00:56 13:05:27 84° 286° (WNW) 13:09:56 437.505/2401.250
VELOX 1 24 Jun 13:08:16 13:12:15 31° 96° (E) 13:16:13 145.980
DX 1 24 Jun 13:32:26 13:35:40 20° 92° (E) 13:38:53 434.975-435.025
ITAMSAT 1 24 Jun 13:37:08 13:38:43 11° 49° (NE) 13:40:18 435.822/435.867
POLYITAN 1 24 Jun 13:37:39 13:39:23 12° 273° (W) 13:41:09 437.675
SPROUT 24 Jun 13:38:43 13:43:03 69° 103° (ESE) 13:47:19 437.525
Gurwin Techsat 1B 24 Jun 13:41:23 13:46:36 61° 70° (ENE) 13:51:51 435.225
UKube-1 24 Jun 13:52:04 13:55:24 21° 93° (E) 13:58:44 .
PCSat 24 Jun 14:01:37 14:06:59 62° 310° (NW) 14:12:24 145.827
BUGSAT 1 24 Jun 14:06:41 14:09:46 20° 268° (W) 14:12:54 437.445
AO-7 24 Jun 14:23:47 14:31:28 44° 56° (NE) 14:39:14 .
Tancredo 1 24 Jun 14:28:06 14:31:07 59° 206° (SSW) 14:34:08 437.200
50 SAT 24 Jun 14:29:26 14:32:50 66° 286° (WNW) 14:36:13 437.505
ISS 24 Jun 14:32:32 14:35:51 87° 200° (SSW) 14:39:09 437.550
Oscar 19 24 Jun 14:38:04 14:42:39 32° 265° (W) 14:47:15 437.125/150
ESTCUBE 1 24 Jun 14:39:32 14:41:33 13° 304° (NW) 14:43:33 437.505/2401.250
VELOX 1 24 Jun 14:44:43 14:48:41 33° 294° (WNW) 14:52:38 145.980
BEESAT 24 Jun 14:52:46 14:53:41 10° 85° (E) 14:54:36 436.000
DX 1 24 Jun 15:07:54 15:12:08 50° 290° (WNW) 15:16:22 434.975-435.025
ITAMSAT 1 24 Jun 15:12:02 15:17:07 57° 69° (ENE) 15:22:15 435.822/435.867
SPROUT 24 Jun 15:15:46 15:18:27 16° 301° (WNW) 15:21:06 437.525
Gurwin Techsat 1B 24 Jun 15:22:51 15:26:57 22° 269° (W) 15:31:05 435.225
UKube-1 24 Jun 15:27:30 15:31:39 46° 291° (WNW) 15:35:47 .
SO-50 24 Jun 15:35:16 15:39:46 66° 125° (SE) 15:44:17 436.795
PCSat 24 Jun 15:47:39 15:51:30 19° 333° (NNW) 15:55:22 145.827
Tancredo 1 24 Jun 16:04:59 16:06:11 12° 223° (SW) 16:07:24 437.200
MOZHAYETS 4 24 Jun 16:08:24 16:12:40 36° 96° (E) 16:16:53
ISS 24 Jun 16:09:25 16:12:01 21° 218° (SW) 16:14:35 437.550
AO-7 24 Jun 16:15:58 16:24:05 56° 257° (WSW) 16:32:18 .
ITUPSAT 1 24 Jun 16:16:42 16:21:29 60° 102° (ESE) 16:26:13 437.325
BEESAT 24 Jun 16:27:27 16:32:17 77° 104° (ESE) 16:37:03 436.000
CUBESAT XI-V 24 Jun 16:46:55 16:50:13 19° 90° (E) 16:53:30 437.345
ITAMSAT 1 24 Jun 16:52:50 16:56:57 23° 268° (W) 17:01:05 435.822/435.867
DOVE 4 24 Jun 16:57:48 17:01:16 26° 64° (ENE) 17:04:51 437.250
SO-50 24 Jun 17:16:44 17:20:36 27° 326° (NNW) 17:24:29 436.795
NUDT-PHONESAT 24 Jun 17:24:37 17:27:05 17° 63° (ENE) 17:29:34 437.300
PCSat 24 Jun 17:35:12 17:37:10 12° 359° (N) 17:39:07 145.827
XW-2F 24 Jun 17:35:52 17:39:05 26° 67° (ENE) 17:42:19 145.980 - 146.000
HO-68 24 Jun 17:36:45 17:41:58 22° 49° (NE) 17:47:12 435.675
XW-2D 24 Jun 17:38:54 17:42:17 30° 68° (ENE) 17:45:40 145.860 - 145.880
LilacSat-2 24 Jun 17:45:38 17:49:12 36° 69° (ENE) 17:52:46 437.200
MOZHAYETS 4 24 Jun 17:45:43 17:49:45 30° 295° (WNW) 17:53:44
CUTE-I 24 Jun 17:47:09 17:52:09 42° 66° (ENE) 17:57:10 437.470
XW-2B 24 Jun 17:47:41 17:51:13 36° 69° (ENE) 17:54:45 145.730 - 145.750
KKS-1 24 Jun 17:49:50 17:54:13 49° 100° (E) 17:58:33 437.445
ITUPSAT 1 24 Jun 17:55:18 17:58:55 21° 301° (WNW) 18:02:29 437.325
XW-2C 24 Jun 18:02:51 18:06:36 53° 72° (ENE) 18:10:21 145.795 - 145.815
BEESAT 24 Jun 18:06:22 18:09:30 18° 303° (WNW) 18:12:37 436.000
CUTE 1.7 + AOD 2 24 Jun 18:15:17 18:17:51 16° 60° (ENE) 18:20:25 437.475
AO-7 24 Jun 18:16:19 18:18:50 11° 279° (W) 18:21:22 .
CUBEBUG 2 24 Jun 18:17:10 18:18:34 11° 53° (NE) 18:19:59 437.445
KAITUO 1B 24 Jun 18:19:38 18:23:22 64° 74° (ENE) 18:27:08 145.475/437.950
STARS 24 Jun 18:22:33 18:26:52 46° 100° (E) 18:31:09 437.465
CUBESAT XI-V 24 Jun 18:23:26 18:27:57 57° 289° (WNW) 18:32:27 437.345
XW-2A 24 Jun 18:31:35 18:33:14 13° 61° (ENE) 18:34:54 145.665 - 145.685
DOVE 4 24 Jun 18:35:00 18:38:51 36° 264° (W) 18:42:50 437.250
UWE-3 24 Jun 18:51:44 18:54:15 15° 57° (ENE) 18:56:47 435.000/436.395/437.385
AAUSAT CUBESAT 2 24 Jun 18:54:46 18:56:36 13° 58° (ENE) 18:58:26 437.432
NUDT-PHONESAT 24 Jun 18:56:59 19:00:39 48° 261° (W) 19:04:20 437.300
SO-50 24 Jun 19:00:36 19:02:34 12° 350° (N) 19:04:32 436.795
XW-2F 24 Jun 19:09:46 19:13:09 29° 264° (W) 19:16:33 145.980 - 146.000
XW-2D 24 Jun 19:13:14 19:16:29 26° 266° (W) 19:19:44 145.860 - 145.880
PCSat 24 Jun 19:19:10 19:22:52 18° 25° (NNE) 19:26:35 145.827
LilacSat-2 24 Jun 19:20:34 19:23:35 22° 267° (W) 19:26:38 437.200
HO-68 24 Jun 19:21:32 19:28:44 82° 71° (ENE) 19:35:59 435.675
XW-2B 24 Jun 19:22:29 19:25:30 22° 267° (W) 19:28:32 145.730 - 145.750
KKS-1 24 Jun 19:26:59 19:30:29 23° 298° (WNW) 19:34:00 437.445
CUTE-I 24 Jun 19:27:32 19:32:18 33° 265° (W) 19:37:07 437.470
SEEDS 24 Jun 19:33:29 19:37:36 55° 72° (ENE) 19:41:43 437.485
XW-2C 24 Jun 19:38:49 19:41:06 15° 270° (W) 19:43:24 145.795 - 145.815
CUTE 1.7 + AOD 2 24 Jun 19:48:57 19:53:12 69° 258° (WSW) 19:57:27 437.475
AO-73 24 Jun 19:49:06 19:52:49 25° 63° (ENE) 19:56:32 145.935
CUBEBUG 2 24 Jun 19:49:42 19:54:16 67° 73° (ENE) 19:58:58 437.445
KAITUO 1B 24 Jun 19:56:10 19:57:48 12° 272° (W) 19:59:26 145.475/437.950
STARS 24 Jun 19:59:26 20:02:57 23° 298° (WNW) 20:06:28 437.465
XW-2A 24 Jun 20:02:10 20:05:34 56° 259° (W) 20:08:59 145.665 - 145.685
STRAND 1 24 Jun 20:11:02 20:15:51 38° 97° (E) 20:20:38 437.568
Oscar 11 24 Jun 20:17:12 20:21:07 33° 67° (ENE) 20:25:02 .
ZACube-1 24 Jun 20:22:38 20:27:05 53° 71° (ENE) 20:31:34 437.345
UWE-3 24 Jun 20:25:24 20:30:00 90° 305° (NW) 20:34:43 435.000/436.395/437.385
AAUSAT CUBESAT 2 24 Jun 20:27:19 20:31:27 84° 259° (W) 20:35:36 437.432
DELFI C3 24 Jun 20:29:51 20:31:42 13° 59° (ENE) 20:33:34 145.870
SO-50 24 Jun 20:42:32 20:44:55 14° 15° (NNE) 20:47:19 436.795
RS-15 24 Jun 20:51:12 21:01:56 39° 107° (ESE) 21:12:47 29.354- 29.394
PCSat 24 Jun 21:02:06 21:07:29 56° 49° (NE) 21:12:48 145.827
FO-29 24 Jun 21:10:45 21:14:56 15° 81° (E) 21:19:07 435.910
SEEDS 24 Jun 21:10:52 21:13:37 17° 270° (W) 21:16:23 437.485
AO-85 24 Jun 21:11:25 21:14:59 31° 119° (ESE) 21:18:29 145.980
HO-68 24 Jun 21:11:44 21:17:15 23° 270° (W) 21:22:49 435.675
YUBILEINY 24 Jun 21:15:22 21:22:08 26° 78° (ENE) 21:28:54 435.215
AO-73 24 Jun 21:24:26 21:28:48 46° 262° (W) 21:33:14 145.935
CUBEBUG 2 24 Jun 21:28:21 21:31:22 17° 272° (W) 21:34:26 437.445
EO-88 24 Jun 21:39:48 21:43:17 42° 71° (ENE) 21:46:48 145.990 - 145.960
BEESAT 3 24 Jun 21:43:18 21:46:59 37° 120° (ESE) 21:50:42 437.485
STRAND 1 24 Jun 21:50:20 21:55:00 35° 296° (WNW) 21:59:39 437.568
Oscar 11 24 Jun 21:53:27 21:57:16 29° 265° (W) 22:01:05 .
NO-84 24 Jun 21:53:48 21:55:59 14° 126° (SE) 21:58:16 435.350 FM
M-CUBED/EXP-1 PRIME 24 Jun 21:56:51 21:58:41 13° 98° (E) 22:00:33 437.505
ZACube-1 24 Jun 22:00:14 22:03:39 21° 269° (W) 22:07:08 437.345
TIGRISAT 24 Jun 22:01:15 22:03:42 14° 87° (E) 22:06:07 435.000
DELFI C3 24 Jun 22:02:02 22:05:57 74° 258° (WSW) 22:09:53 145.870
UWE-3 24 Jun 22:05:16 22:07:09 12° 275° (W) 22:09:03 435.000/436.395/437.385
LO-87 24 Jun 22:07:01 22:08:58 14° 61° (ENE) 22:10:56 145.935 - 145.965
PRISM 24 Jun 22:08:45 22:11:07 15° 90° (E) 22:13:29 437.425
O/OREOS (USA 219) 24 Jun 22:13:31 22:17:52 46° 110° (ESE) 22:22:12 437.305
SO-50 24 Jun 22:22:28 22:26:39 36° 39° (NE) 22:30:51 436.795
ESTCUBE 1 24 Jun 22:29:00 22:32:17 20° 61° (ENE) 22:35:34 437.505/2401.250
BEESAT 2 24 Jun 22:40:04 22:43:56 50° 123° (ESE) 22:47:52 435.950
UNISAT 6 24 Jun 22:41:49 22:46:07 35° 96° (E) 22:50:20 437.425
PCSat 24 Jun 22:45:57 22:50:36 29° 249° (WSW) 22:55:13 145.827
AO-85 24 Jun 22:51:36 22:55:18 36° 318° (NW) 22:58:58 145.980
FO-29 24 Jun 22:53:36 23:01:20 65° 100° (E) 23:09:07 435.910
RS-15 24 Jun 23:01:10 23:13:29 80° 312° (NW) 23:25:57 29.354- 29.394
SPROUT 24 Jun 23:02:51 23:04:41 13° 56° (NE) 23:06:31 437.525
YUBILEINY 24 Jun 23:09:05 23:17:54 83° 280° (W) 23:26:50 435.215
EO-88 24 Jun 23:14:42 23:17:10 17° 268° (W) 23:19:40 145.990 - 145.960
BEESAT 3 24 Jun 23:20:56 23:24:36 33° 320° (NW) 23:28:18 437.485
NO-84 24 Jun 23:28:50 23:32:52 69° 146° (SE) 23:37:10 435.350 FM
M-CUBED/EXP-1 PRIME 24 Jun 23:29:50 23:33:24 62° 293° (WNW) 23:37:15 437.505
TIGRISAT 24 Jun 23:36:17 23:41:00 80° 285° (WNW) 23:45:37 435.000
LO-87 24 Jun 23:38:30 23:41:59 54° 259° (W) 23:45:32 145.935 - 145.965
PRISM 24 Jun 23:42:44 23:46:47 61° 288° (WNW) 23:50:50 437.425
QB50P2 24 Jun 23:51:32 23:53:49 14° 88° (E) 23:56:05 145.880/145.840
O/OREOS (USA 219) 24 Jun 23:53:37 23:57:29 27° 310° (NW) 00:01:20 437.305
SO-50 25 Jun 00:02:56 00:07:12 42° 239° (WSW) 00:11:30 436.795
ESTCUBE 1 25 Jun 00:04:18 00:08:43 57° 259° (W) 00:13:10 437.505/2401.250
VELOX 1 25 Jun 00:09:12 00:13:23 46° 69° (ENE) 00:17:35 145.980
EO-79 25 Jun 00:15:30 00:18:52 22° 93° (E) 00:22:12 145.935-145.965
BEESAT 2 25 Jun 00:18:26 00:21:55 27° 323° (NW) 00:25:26 435.950
UNISAT 6 25 Jun 00:18:36 00:22:46 32° 295° (WNW) 00:26:52 437.425
DUCHIFAT 1 25 Jun 00:30:15 00:33:49 25° 94° (E) 00:37:20 145.980
DX 1 25 Jun 00:31:38 00:35:22 29° 65° (ENE) 00:39:09 434.975-435.025
AO-85 25 Jun 00:35:23 00:36:48 12° 342° (NNW) 00:38:13 145.980
AIST 2D 25 Jun 00:35:26 00:38:58 74° 103° (ESE) 00:42:27 435.315
SPROUT 25 Jun 00:35:38 00:39:54 87° 73° (ENE) 00:44:14 437.525
NANOSAT C BR1 25 Jun 00:38:10 00:42:03 33° 96° (E) 00:45:54 145.865
FO-29 25 Jun 00:39:05 00:45:57 37° 300° (WNW) 00:52:56 435.910
UKube-1 25 Jun 00:50:10 00:53:57 31° 65° (ENE) 00:57:46 .
BEESAT 3 25 Jun 01:01:53 01:03:21 12° 342° (NNW) 01:04:49 437.485
50 SAT 25 Jun 01:04:47 01:08:10 85° 76° (ENE) 01:11:33 437.505
NO-84 25 Jun 01:06:39 01:10:42 45° 346° (NNW) 01:14:55 435.350 FM
YUBILEINY 25 Jun 01:09:34 01:16:15 23° 305° (NW) 01:22:59 435.215
TIGRISAT 25 Jun 01:14:45 01:16:54 13° 305° (NW) 01:19:03 435.000
POLYITAN 1 25 Jun 01:14:58 01:19:18 85° 103° (ESE) 01:23:34 437.675
RS-15 25 Jun 01:16:30 01:28:06 43° 342° (NNW) 01:39:37 29.354- 29.394
QB50P2 25 Jun 01:25:48 01:30:06 70° 287° (WNW) 01:34:21 145.880/145.840
BUGSAT 1 25 Jun 01:42:44 01:46:50 44° 99° (E) 01:50:54 437.445
VELOX 1 25 Jun 01:46:41 01:50:04 22° 267° (W) 01:53:28 145.980
EO-79 25 Jun 01:50:44 01:54:49 43° 291° (WNW) 01:58:52 145.935-145.965
ITUPSAT 1 25 Jun 01:51:36 01:54:50 18° 57° (ENE) 01:58:04 437.325
Gurwin Techsat 1B 25 Jun 01:54:18 01:57:46 17° 88° (E) 02:01:12 435.225
BEESAT 2 25 Jun 02:00:02 02:00:59 11° 346° (NNW) 02:01:57 435.950
BEESAT 25 Jun 02:01:33 02:05:10 22° 60° (ENE) 02:08:49 436.000
DUCHIFAT 1 25 Jun 02:05:38 02:09:35 38° 292° (WNW) 02:13:30 145.980
DX 1 25 Jun 02:07:34 02:11:30 34° 263° (W) 02:15:28 434.975-435.025
AIST 2D 25 Jun 02:10:43 02:11:38 11° 300° (WNW) 02:12:32 435.315
NANOSAT C BR1 25 Jun 02:13:59 02:17:41 29° 295° (WNW) 02:21:23 145.865
SPROUT 25 Jun 02:15:10 02:16:27 11° 274° (W) 02:17:43 437.525
UKube-1 25 Jun 02:26:07 02:29:57 31° 264° (W) 02:33:49 .
FO-29 25 Jun 02:27:07 02:28:55 11° 322° (NW) 02:30:44 435.910
Oscar 19 25 Jun 02:44:25 02:49:32 66° 102° (ESE) 02:54:38 437.125/150
NO-84 25 Jun 02:44:51 02:48:57 40° 8° (N) 02:53:07 435.350 FM
POLYITAN 1 25 Jun 02:52:19 02:54:28 14° 303° (WNW) 02:56:37 437.675
